EW2328 Weather Reports


time (UTC)temp
C
wind
direction
speed
KPH
gust
KPH
rain 1hr
cm
rain 24hr
cm
rain mn
cm
humidity
%
barometer
mb
20260507134518 10 293 4.8 14.5 0.00 0.00 0.00 57 1015.7
20260507133518 10 23 6.4 12.9 0.00 0.00 0.00 58 1015.7
20260507132518 10 293 3.2 11.3 0.00 0.00 0.00 58 1015.6
20260507131518 10 293 1.6 8.0 0.00 0.00 0.00 61 1015.7
20260507130518 9 315 3.2 9.7 0.00 0.00 0.00 63 1015.6
20260507125518 9 293 1.6 8.0 0.00 0.00 0.00 63 1015.7
20260507124518 8 315 1.6 8.0 0.00 0.00 0.00 65 1015.7
20260507123518 8 315 3.2 14.5 0.00 0.00 0.00 66 1015.8
20260507122518 8 315 1.6 3.2 0.00 0.00 0.00 68 1015.7
20260507121518 8 293 1.6 6.4 0.00 0.00 0.00 68 1015.8
20260507120558 7 293 1.6 6.4 0.00 0.00 0.00 69 1015.6
20260507115518 7 293 1.6 9.7 0.00 0.00 0.00 71 1015.6
20260507114518 7 0.0 4.8 0.00 0.00 0.00 72 1015.7
20260507113518 7 0.0 1.6 0.00 0.00 0.00 74 1015.7
20260507112518 7 0.0 3.2 0.00 0.00 0.00 75 1015.7
20260507111518 6 0.0 0.0 0.00 0.00 0.00 75 1015.4
20260507110518 6 0.0 1.6 0.00 0.00 0.00 77 1015.3
20260507105518 6 0.0 1.6 0.00 0.00 0.00 78 1015.1
20260507104518 5 0.0 1.6 0.00 0.00 0.00 79 1015.0
20260507103518 5 0.0 1.6 0.00 0.00 0.00 79 1014.8
20260507102518 6 0.0 1.6 0.00 0.00 0.00 80 1014.8
20260507101518 6 0.0 3.2 0.00 0.00 0.00 80 1014.9
20260507100538 6 0.0 1.6 0.00 0.00 0.00 80 1014.9
20260507095518 6 0.0 4.8 0.00 0.00 0.00 80 1014.9
20260507094518 6 0.0 1.6 0.00 0.00 0.00 80 1015.0
20260507093518 6 0.0 1.6 0.00 0.00 0.00 80 1014.9
20260507092538 6 0.0 1.6 0.00 0.00 0.00 80 1014.9
20260507091518 6 0.0 3.2 0.00 0.00 0.00 79 1014.7
20260507090518 6 0.0 1.6 0.00 0.00 0.00 79 1014.6
20260507085518 7 0.0 3.2 0.00 0.00 0.00 80 1014.6
20260507084518 7 0.0 0.0 0.00 0.00 0.00 79 1014.6
20260507083518 7 0.0 3.2 0.00 0.00 0.00 79 1014.6
20260507082518 7 0.0 1.6 0.00 0.03 0.00 79 1014.6
20260507081538 7 0.0 3.2 0.00 0.03 0.00 80 1014.5
20260507080518 7 0.0 6.4 0.00 0.03 0.00 80 1014.5
20260507075518 7 0.0 3.2 0.00 0.03 0.00 79 1014.5
20260507074518 7 0.0 4.8 0.00 0.05 0.00 79 1014.5
20260507073518 8 0.0 6.4 0.00 0.08 0.00 77 1014.6
20260507072518 8 0.0 1.6 0.00 0.10 0.00 77 1014.6
20260507071518 8 0.0 0.0 0.00 0.10 0.00 75 1014.6
20260507070518 8 0.0 0.0 0.00 0.15 0.00 75 1014.6
20260507065518 8 0.0 3.2 0.00 0.23 0.00 74 1014.6
20260507064518 8 0.0 1.6 0.00 0.25 0.00 75 1014.7
20260507063518 8 0.0 1.6 0.00 0.25 0.00 75 1014.9
20260507062518 8 0.0 3.2 0.00 0.25 0.00 76 1014.8
20260507061518 8 0.0 6.4 0.00 0.25 0.00 77 1014.7
20260507060518 8 0.0 6.4 0.00 0.30 0.00 78 1014.8
20260507055518 8 0.0 1.6 0.00 0.36 0.00 79 1014.9
20260507054518 8 0.0 0.0 0.00 0.38 0.00 79 1014.8
20260507053518 8 0.0 0.0 0.00 0.41 0.00 79 1015.0
20260507052538 8 0.0 0.0 0.00 0.46 0.00 80 1014.9
20260507051518 8 0.0 0.0 0.00 0.51 0.00 81 1014.9
20260507050518 8 0.0 0.0 0.00 0.61 0.00 82 1015.0
20260507045538 8 0.0 0.0 0.00 0.71 0.00 83 1015.1
20260507044518 8 0.0 0.0 0.00 0.86 0.00 82 1015.1
20260507043518 8 0.0 0.0 0.00 0.89 0.00 82 1014.9
20260507042518 8 0.0 0.0 0.00 0.97 0.00 81 1014.8
20260507041518 8 0.0 0.0 0.00 1.02 0.00 81 1014.9
20260507040518 8 0.0 0.0 0.00 1.09 0.00 80 1014.8
20260507035517 8 0.0 0.0 0.00 1.14 1.14 80 1014.8
20260507034537 8 0.0 0.0 0.00 1.17 1.14 78 1014.8
20260507033517 8 0.0 0.0 0.00 1.19 1.14 78 1014.8
20260507032517 9 0.0 0.0 0.00 1.19 1.14 77 1014.6
20260507031517 9 0.0 0.0 0.00 1.22 1.14 77 1014.8
20260507030537 10 0.0 0.0 0.00 1.27 1.14 76 1014.8
20260507025518 10 0.0 0.0 0.00 1.27 1.14 72 1015.0
20260507024519 10 0.0 0.0 0.00 1.30 1.14 72 1014.9
20260507023538 10 0.0 0.0 0.00 1.32 1.14 72 1014.8
20260507022519 10 0.0 0.0 0.00 1.35 1.14 72 1014.7
20260507021519 10 0.0 0.0 0.00 1.40 1.14 71 1014.8
20260507020519 11 0.0 0.0 0.00 1.42 1.14 69 1014.6
20260507015519 11 0.0 0.0 0.00 1.47 1.14 68 1014.5
20260507014519 11 0.0 0.0 0.00 1.52 1.14 68 1014.4
20260507013539 11 0.0 0.0 0.00 1.55 1.14 68 1014.3
20260507012520 11 0.0 0.0 0.00 1.55 1.14 68 1014.3
20260507011520 11 0.0 0.0 0.00 1.57 1.14 69 1014.1
20260507010519 11 0.0 0.0 0.00 1.63 1.14 69 1014.2
20260507005519 11 0.0 0.0 0.00 1.73 1.14 68 1014.2
20260507004519 12 0.0 0.0 0.00 1.80 1.14 67 1014.1
20260507003519 12 0.0 0.0 0.00 1.83 1.14 66 1014.1
20260507002519 12 0.0 0.0 0.00 1.83 1.14 65 1013.8
20260507001518 12 0.0 0.0 0.00 1.83 1.14 63 1013.8
20260507000519 12 0.0 0.0 0.00 1.85 1.14 63 1013.6
20260506235518 13 0.0 1.6 0.00 1.88 1.14 61 1013.6
20260506234559 13 338 1.6 6.4 0.00 1.91 1.14 61 1013.6
20260506233521 13 0.0 3.2 0.00 1.91 1.14 59 1013.6
20260506232519 13 0.0 4.8 0.00 1.93 1.14 59 1013.5
20260506231519 13 293 1.6 6.4 0.00 1.96 1.14 57 1013.3
20260506230519 13 315 3.2 8.0 0.00 1.96 1.14 56 1013.4
20260506225518 13 338 3.2 12.9 0.00 1.96 1.14 60 1013.5
20260506224539 13 315 3.2 9.7 0.00 1.96 1.14 57 1013.4
20260506223518 13 0.0 3.2 0.00 1.96 1.14 58 1013.5
20260506222519 13 0 1.6 8.0 0.00 1.96 1.14 59 1013.6
20260506221518 13 0.0 6.4 0.00 1.96 1.14 59 1013.7
20260506220519 13 0.0 1.6 0.00 1.98 1.14 58 1013.8
20260506215519 13 293 1.6 6.4 0.00 2.01 1.14 58 1013.9
20260506214538 14 23 1.6 9.7 0.00 2.03 1.14 56 1013.7
20260506213518 14 293 1.6 4.8 0.00 2.06 1.14 52 1013.6
20260506212519 14 315 4.8 16.1 0.00 2.06 1.14 56 1013.7
20260506211519 14 293 1.6 3.2 0.00 2.08 1.14 58 1013.4
20260506210519 13 23 3.2 9.7 0.00 2.08 1.14 59 1013.2
20260506205518 13 0 3.2 11.3 0.00 2.11 1.14 58 1013.1
20260506204519 13 0 6.4 11.3 0.00 2.11 1.14 56 1013.1
20260506203559 13 0 4.8 8.0 0.00 2.11 1.14 57 1013.2
20260506202539 14 0 4.8 16.1 0.00 2.13 1.14 57 1013.3
20260506201518 13 0 3.2 8.0 0.00 2.16 1.14 56 1013.2
20260506200518 13 293 1.6 8.0 0.00 2.18 1.14 56 1013.3
20260506195519 14 293 1.6 9.7 0.00 2.21 1.14 58 1013.2
20260506194519 14 315 3.2 8.0 0.00 2.24 1.14 56 1013.3
20260506193518 15 293 3.2 11.3 0.00 2.29 1.14 56 1013.2
20260506192519 15 0 3.2 8.0 0.00 2.39 1.14 61 1013.1
20260506191519 14 315 3.2 11.3 0.00 2.46 1.14 53 1012.9
20260506190518 14 0 4.8 11.3 0.00 2.46 1.14 54 1013.0
20260506185518 14 315 4.8 16.1 0.00 2.46 1.14 55 1012.9
20260506184518 14 315 3.2 12.9 0.00 2.46 1.14 55 1013.1
20260506183518 14 293 1.6 9.7 0.00 2.46 1.14 56 1012.8
20260506182518 15 0 1.6 8.0 0.00 2.46 1.14 57 1012.9
20260506181519 15 293 1.6 4.8 0.00 2.46 1.14 56 1012.9
20260506180518 15 293 3.2 14.5 0.00 2.46 1.14 56 1013.1
20260506175518 15 0 1.6 8.0 0.00 2.46 1.14 59 1013.1
20260506174518 15 23 3.2 12.9 0.00 2.46 1.14 57 1013.4
20260506173518 15 0 3.2 6.4 0.00 2.46 1.14 57 1013.4
20260506172518 15 0 3.2 12.9 0.00 2.46 1.14 60 1013.2
20260506171519 14 293 1.6 8.0 0.00 2.46 1.14 64 1013.5
20260506170519 14 23 4.8 16.1 0.00 2.46 1.14 61 1013.5
20260506165519 14 315 1.6 8.0 0.00 2.46 1.14 61 1013.6
20260506164518 13 293 3.2 16.1 0.00 2.46 1.14 61 1013.6
20260506163518 13 270 1.6 4.8 0.00 2.46 1.14 60 1013.5
20260506162518 13 0 4.8 16.1 0.00 2.46 1.14 63 1013.6
20260506161518 13 45 1.6 9.7 0.00 2.46 1.14 64 1013.5
20260506160518 12 0 6.4 14.5 0.00 2.46 1.14 67 1013.3
20260506155518 12 23 8.0 16.1 0.00 2.46 1.14 65 1013.5
20260506154518 12 45 8.0 12.9 0.00 2.46 1.14 63 1013.3
20260506153518 12 23 4.8 12.9 0.00 2.46 1.14 68 1013.4
20260506152518 12 315 3.2 8.0 0.00 2.46 1.14 68 1013.7
20260506151518 11 23 6.4 16.1 0.00 2.46 1.14 65 1013.5
20260506150519 11 0 4.8 11.3 0.00 2.46 1.14 69 1013.1
20260506145519 11 0 8.0 19.3 0.00 2.46 1.14 70 1013.0
20260506144518 11 23 6.4 16.1 0.00 2.46 1.14 73 1012.6
20260506143518 10 0 8.0 12.9 0.00 2.46 1.14 74 1012.5
20260506142518 10 0 8.0 16.1 0.00 2.46 1.14 76 1012.3
20260506141518 10 23 6.4 16.1 0.00 2.46 1.14 76 1012.6
20260506140538 10 23 9.7 16.1 0.00 2.46 1.14 78 1012.2
20260506135538 9 0 8.0 17.7 0.00 2.46 1.14 79 1012.0